OUFTI-1 (41458 NORAD) Tracking and Keplerian Element Data

This shows tracking and keplerian element data for the satellite.

Feedback or suggestion? Click here.




ElementValue
Catalog41458
NameOUFTI-1
Epoch Orbit27084
Epoch Day91.3011435
Epoch Year2021
RAAN223.8316
Inclination98.1307
Eccentricity0.0158546
Argument of Perigee320.2359
Mean Anonmoly38.7332
Mean Motion15.08218102
Decay Rate2.252E-05
L11 41458U 16025C 21091.30114350 .00002252 00000-0 11309-3 0 9994
L22 41458 98.1307 223.8316 0158546 320.2359 38.7332 15.08218102270845



Live tracking and technical data element details for OUFTI-1 (NORAD 41458). OUFTI-1 can be tracked NOW for your location showing map with azimuth and elevation plus other details from your city location.







IsCatalogInMostPopularTable: catalog: 41458, numindb: 409
Update: records affected: 1



GetName: 41458 OUFTI-1

Hit Count: updated at: Fri, 02 Dec 2022 12:53:53 GMT